This is the latest recevied weather packets stored in our database for station/object WA9AFM. If no packets are shown the sender has not sent any weather packets the latest 10 day(s).
| Time | Temp. | Humidity | Pressure | Rain* | Wind** | Luminosity | Snow |
|---|---|---|---|---|---|---|---|
| 1787878871 | 32.22° C | 45% | 1009.2 hPa | 0 mm | - | - | - |
| 1787877970 | 32.78° C | 44% | 1009.2 hPa | 0 mm | - | - | - |
| 1787877072 | 33.33° C | 42% | 1009.3 hPa | 0 mm | - | - | - |
| 1787876171 | 33.89° C | 41% | 1009.2 hPa | 0 mm | - | - | - |
| 1787875270 | 33.89° C | 41% | 1009.2 hPa | 0 mm | - | - | - |
| 1787874371 | 34.44° C | 40% | 1009.1 hPa | 0 mm | - | - | - |
| 1787873470 | 35° C | 40% | 1009.2 hPa | 0 mm | - | - | - |
| 1787872571 | 35.56° C | 39% | 1009.3 hPa | 0 mm | - | - | - |
| 1787871670 | 35.56° C | 41% | 1009.3 hPa | 0 mm | - | - | - |
| 1787870770 | 35° C | 41% | 1009.5 hPa | 0 mm | - | - | - |
| 1787869871 | 35.56° C | 41% | 1009.6 hPa | 0 mm | - | - | - |
| 1787868971 | 35.56° C | 41% | 1009.7 hPa | 0 mm | - | - | - |
| 1787868070 | 35° C | 41% | 1009.9 hPa | 0 mm | - | - | - |
| 1787867171 | 35° C | 42% | 1010 hPa | 0 mm | - | - | - |
| 1787866270 | 35.56° C | 43% | 1010.1 hPa | 0 mm | - | - | - |
| 1787865372 | 35° C | 45% | 1010.3 hPa | 0 mm | - | - | - |
| 1787864471 | 35.56° C | 42% | 1010.5 hPa | 0 mm | - | - | - |
| 1787863571 | 35° C | 40% | 1010.6 hPa | 0 mm | - | - | - |
| 1787862671 | 35° C | 41% | 1010.7 hPa | 0 mm | - | - | - |
| 1787861771 | 35° C | 42% | 1010.9 hPa | 0 mm | - | - | - |
| 1787860870 | 34.44° C | 45% | 1011 hPa | 0 mm | - | - | - |
| 1787859972 | 34.44° C | 44% | 1011.1 hPa | 0 mm | - | - | - |
| 1787859070 | 34.44° C | 47% | 1011.3 hPa | 0 mm | - | - | - |
| 1787858172 | 34.44° C | 47% | 1011.4 hPa | 0 mm | - | - | - |
| 1787857271 | 34.44° C | 47% | 1011.5 hPa | 0 mm | - | - | - |
* Rain latest hour (hover to see other rain measurements)
** Current wind speed in m/s (hover to see current wind gust speed)